STARLINK-32733, 62477

Orbit data source: Space-Track

STARLINK-32733, 62477 is a payload satellite owned by SpaceX/Seattle (US) in LEO that was launched on Tue, 31 Dec 2024 UTC via an FALCON 9 launch vehicle from the Air Force Eastern Test Range (AFETR). Payloads include a variety of satellites, spacecraft, and rockets equipped with specific instruments for various scientific and technological missions. These include communications satellites like Starlink; space stations such as the ISS; scientific satellites like the Hubble; Earth observation satellites from companies like Planet Labs, Umbra, and HawkEye 360; GPS; miniature CubeSats for education and research; and military/defense satellites.

Loading next visibility...
STARLINK-32733 details
Identifier
62477, 2024-254R
Orbit
LEO
Last TLE update15 hours ago
Origin
Flag of USSpaceX/Seattle (US)
ManufacturerSpaceX/Seattle
MissionOperational Commercial Communications
Bus & MotorSTARLINK V2M, Unknown motor
Mass730 kg wet, ~700 kg dry
Launch date (UTC)
2024-12-31 (1 month ago)
Launch vehicle
FALCON 9
Launch site
Air Force Eastern Test Range (AFETR)
Object type
Payload
Rocket body
Debris
Shape & HBRBox + 2 Pan, 29 m
Radar Cross Section33.884 m², Large (>1 m²)

Expand to show TLE details & history

TLE from 15 hours ago
0 STARLINK-32733
1 62477U 24254R   25035.58335648 -.01477862  00000-0 -35182-1 0  9997
2 62477  43.0002 107.7363 0001267 276.0925  34.0212 15.43827075  6034
Epoch: 2025-02-04T14:00Z
Definitive object data (Epoch: 2025-02-04T14:00:01.999Z)
Latitude-31.61069°
Longitude81.7207°
Altitude442.75 km
Speed7.647 km/s
True Right ascension04h 26m 51s
True Declination-31° 27' 01"
Sunlit
Object was in daylight at TLE epoch
Visualization TLE readout
Latitude11.92811°
Longitude-73.86737°
Altitude440.192 km
Speed7.65 km/s
Apparent Right ascension18h 26m 16s
Apparent Declination-13° 04' 21"
Sunlit
Object is in daylight
Visualization observer readout
Local Sidereal Time06:55:56
Azimuth15.736° NNE
Elevation-62.374°
Doppler factor1
Orbital elements
Apogee altitude437.649 km
Perigee altitude435.922 km
Semi-major axis6,814.923 km
Eccentricity0.0001267
Inclination43.0002°
RAAN107.7363°
Arg. of periapsis276.0925°
True anomaly34.02932°
Mean anomaly34.0212°
Eccentric anomaly34.02526°
Mean motion3.85791 °/min
BSTAR-0.035182
Orbital period93.31 mins
Loading maneuver chart data...
Loading historical data...
Loading historical data...
Loading historical data...
Loading historical data...
Loading historical data...
Loading historical data...
Loading historical data...

STARLINK-32733 Visibility forecast

Observer location: undefined°, undefined

Span
Click to sort rows by Start time (UTC) header in descending order
Start Az.
Max El. time (UTC)
Max El. Az.
Max El.
End time (UTC)
End Az.
5 mins2025-02-05 07:30:01.001Z197.451° SSW2025-02-05 07:32:01.001Z160.168° S20.906°2025-02-05 07:35:01.001Z95.7° ESE
5 mins2025-02-05 09:08:01.001Z254.577° W2025-02-05 09:10:01.001Z274.177° WNW44.033°2025-02-05 09:13:01.001Z70.879° E
4 mins2025-02-05 10:47:01.001Z299.926° NW2025-02-05 10:48:01.001Z330.891° NNW35.256°2025-02-05 10:51:01.001Z71.857° E
5 mins2025-02-05 12:25:01.001Z290.216° WNW2025-02-05 12:27:01.001Z90.994° ESE43.857°2025-02-05 12:30:01.001Z106.803° ESE
4 mins2025-02-05 14:03:01.001Z249.743° W2025-02-05 14:05:01.001Z200.254° SSW20.756°2025-02-05 14:07:01.001Z163.132° S
|